| time (UTC) | temp C | wind direction | speed KPH | gust KPH | rain 1hr cm | rain 24hr cm | rain mn cm | humidity % | barometer mb |
| 20260504183708 | 20 | 0.0 | 0.0 | 0.00 | 0.05 | 0.05 | 77 | 1020.3 | |
| 20260504183206 | 20 | 0.0 | 0.0 | 0.00 | 0.05 | 0.05 | 76 | 1020.3 | |
| 20260504182704 | 20 | 0.0 | 0.0 | 0.00 | 0.05 | 0.05 | 74 | 1020.2 | |
| 20260504182203 | 20 | 0.0 | 0.0 | 0.00 | 0.05 | 0.05 | 71 | 1020.2 | |
| 20260504181701 | 21 | 0.0 | 0.0 | 0.00 | 0.05 | 0.05 | 70 | 1020.2 | |
| 20260504181159 | 21 | 0.0 | 0.0 | 0.00 | 0.05 | 0.05 | 71 | 1020.1 | |
| 20260504180658 | 21 | 0.0 | 0.0 | 0.00 | 0.05 | 0.05 | 72 | 1020.1 | |
| 20260504180156 | 21 | 0.0 | 0.0 | 0.00 | 0.05 | 0.05 | 69 | 1020.1 | |
| 20260504175654 | 20 | 0.0 | 0.0 | 0.00 | 0.05 | 0.05 | 73 | 1020.0 | |
| 20260504175152 | 21 | 0.0 | 0.0 | 0.00 | 0.05 | 0.05 | 70 | 1020.2 | |
| 20260504174650 | 21 | 0.0 | 0.0 | 0.00 | 0.05 | 0.05 | 76 | 1020.2 | |
| 20260504174148 | 19 | 0.0 | 0.0 | 0.00 | 0.05 | 0.05 | 82 | 1020.3 | |
| 20260504173646 | 19 | 0.0 | 0.0 | 0.00 | 0.05 | 0.05 | 82 | 1020.5 | |
| 20260504173144 | 18 | 0.0 | 0.0 | 0.00 | 0.05 | 0.05 | 83 | 1020.7 | |
| 20260504172643 | 18 | 0.0 | 0.0 | 0.00 | 0.05 | 0.05 | 86 | 1020.8 | |
| 20260504172141 | 17 | 0.0 | 0.0 | 0.00 | 0.05 | 0.05 | 87 | 1020.9 | |
| 20260504171639 | 17 | 0.0 | 0.0 | 0.00 | 0.05 | 0.05 | 87 | 1020.9 | |
| 20260504171138 | 17 | 0.0 | 0.0 | 0.00 | 0.05 | 0.05 | 88 | 1021.0 | |
| 20260504170636 | 17 | 0.0 | 0.0 | 0.00 | 0.05 | 0.05 | 88 | 1021.1 | |
| 20260504170134 | 17 | 0.0 | 0.0 | 0.00 | 0.05 | 0.05 | 86 | 1021.2 | |
| 20260504160113 | 16 | 0.0 | 0.0 | 0.00 | 0.05 | 0.05 | 95 | 1022.4 | |
| 20260504151056 | 15 | 0.0 | 0.0 | 0.00 | 0.10 | 0.05 | 95 | 1023.2 | |
| 20260504150555 | 16 | 0.0 | 0.0 | 0.00 | 0.10 | 0.05 | 93 | 1023.3 | |
| 20260504141034 | 16 | 0.0 | 0.0 | 0.03 | 0.10 | 0.05 | 94 | 1023.6 | |
| 20260504140532 | 16 | 0.0 | 0.0 | 0.03 | 0.10 | 0.05 | 95 | 1023.7 | |
| 20260504130508 | 16 | 0.0 | 0.0 | 0.03 | 0.08 | 0.03 | 96 | 1023.1 | |
| 20260504110419 | 12 | 0.0 | 0.0 | 0.00 | 0.05 | 0.00 | 99 | 1022.8 | |
| 20260504100358 | 12 | 0.0 | 0.0 | 0.00 | 0.05 | 0.00 | 99 | 1022.7 | |
| 20260504081823 | 11 | 0.0 | 0.0 | 0.00 | 0.05 | 0.00 | 99 | 1021.3 | |
| 20260504081321 | 11 | 0.0 | 0.0 | 0.00 | 0.05 | 0.00 | 99 | 1021.1 | |
| 20260504080820 | 10 | 0.0 | 0.0 | 0.00 | 0.05 | 0.00 | 99 | 1020.9 | |
| 20260504080318 | 10 | 0.0 | 0.0 | 0.00 | 0.05 | 0.00 | 99 | 1020.7 | |
| 20260504070300 | 11 | 0.0 | 0.0 | 0.00 | 0.08 | 0.00 | 99 | 1021.1 | |
| 20260504060240 | 11 | 0.0 | 0.0 | 0.00 | 0.08 | 0.00 | 99 | 1020.6 | |
| 20260504050724 | 11 | 0.0 | 0.0 | 0.00 | 0.08 | 0.00 | 99 | 1022.3 | |
| 20260504050222 | 11 | 0.0 | 0.0 | 0.00 | 0.08 | 0.00 | 99 | 1022.2 | |
| 20260504045720 | 11 | 0.0 | 0.0 | 0.00 | 0.08 | 0.00 | 99 | 1022.3 | |
| 20260504045219 | 11 | 0.0 | 0.0 | 0.00 | 0.08 | 0.00 | 99 | 1022.5 | |
| 20260504044717 | 11 | 0.0 | 0.0 | 0.00 | 0.08 | 0.00 | 99 | 1022.4 | |
| 20260504044215 | 11 | 0.0 | 0.0 | 0.00 | 0.08 | 0.00 | 99 | 1022.2 | |
| 20260504043714 | 11 | 0.0 | 0.0 | 0.00 | 0.08 | 0.00 | 99 | 1022.3 | |
| 20260504043212 | 12 | 0.0 | 0.0 | 0.00 | 0.08 | 0.00 | 99 | 1022.4 | |
| 20260504042710 | 12 | 0.0 | 0.0 | 0.00 | 0.08 | 0.00 | 99 | 1022.7 | |
| 20260504042209 | 12 | 0.0 | 0.0 | 0.00 | 0.08 | 0.00 | 99 | 1022.6 | |
| 20260504041707 | 12 | 0.0 | 0.0 | 0.00 | 0.08 | 0.00 | 99 | 1022.6 | |
| 20260504041206 | 12 | 0.0 | 0.0 | 0.00 | 0.08 | 0.00 | 99 | 1022.4 | |
| 20260504040704 | 12 | 0.0 | 0.0 | 0.00 | 0.08 | 0.00 | 99 | 1022.5 | |
| 20260504040203 | 12 | 0.0 | 0.0 | 0.00 | 0.08 | 0.00 | 99 | 1022.8 | |
| 20260504035701 | 12 | 0.0 | 0.0 | 0.00 | 0.08 | 0.00 | 99 | 1022.6 | |
| 20260504035200 | 12 | 0.0 | 0.0 | 0.00 | 0.08 | 0.00 | 99 | 1022.8 | |
| 20260504034658 | 12 | 0.0 | 0.0 | 0.00 | 0.08 | 0.00 | 99 | 1023.1 | |
| 20260504034157 | 12 | 0.0 | 0.0 | 0.00 | 0.08 | 0.00 | 99 | 1023.1 | |
| 20260504033655 | 12 | 0.0 | 0.0 | 0.00 | 0.08 | 0.00 | 99 | 1023.1 | |
| 20260504033152 | 12 | 0.0 | 0.0 | 0.00 | 0.08 | 0.00 | 99 | 1023.0 | |
| 20260504032651 | 12 | 0.0 | 0.0 | 0.00 | 0.08 | 0.00 | 99 | 1023.0 | |
| 20260504032149 | 12 | 0.0 | 0.0 | 0.00 | 0.08 | 0.00 | 99 | 1022.9 | |
| 20260504031647 | 12 | 0.0 | 0.0 | 0.00 | 0.08 | 0.00 | 99 | 1022.8 | |
| 20260504031146 | 11 | 0.0 | 0.0 | 0.00 | 0.08 | 0.00 | 99 | 1022.6 | |
| 20260504030644 | 11 | 0.0 | 0.0 | 0.00 | 0.08 | 0.00 | 99 | 1022.7 | |
| 20260504030142 | 11 | 0.0 | 0.0 | 0.00 | 0.08 | 0.00 | 99 | 1022.9 | |
| 20260504025641 | 11 | 0.0 | 0.0 | 0.00 | 0.08 | 0.08 | 99 | 1023.0 | |
| 20260504025139 | 11 | 0.0 | 0.0 | 0.00 | 0.08 | 0.08 | 99 | 1023.1 | |
| 20260504024638 | 11 | 0.0 | 0.0 | 0.00 | 0.08 | 0.08 | 99 | 1023.3 | |
| 20260504024136 | 11 | 0.0 | 0.0 | 0.00 | 0.08 | 0.08 | 99 | 1023.3 | |
| 20260504023635 | 11 | 0.0 | 0.0 | 0.00 | 0.08 | 0.08 | 99 | 1023.5 | |
| 20260504023133 | 11 | 0.0 | 0.0 | 0.00 | 0.08 | 0.08 | 99 | 1023.5 | |
| 20260504022631 | 11 | 0.0 | 0.0 | 0.00 | 0.08 | 0.08 | 99 | 1023.6 | |
| 20260504022130 | 11 | 0.0 | 0.0 | 0.00 | 0.08 | 0.08 | 99 | 1023.7 | |
| 20260504021628 | 11 | 0.0 | 0.0 | 0.00 | 0.08 | 0.08 | 99 | 1023.7 | |
| 20260504021126 | 11 | 0.0 | 0.0 | 0.00 | 0.08 | 0.08 | 99 | 1023.8 | |
| 20260504020624 | 11 | 0.0 | 0.0 | 0.00 | 0.08 | 0.08 | 99 | 1023.9 | |
| 20260504020123 | 11 | 0.0 | 0.0 | 0.00 | 0.08 | 0.08 | 99 | 1023.9 | |
| 20260504015621 | 11 | 0.0 | 0.0 | 0.00 | 0.08 | 0.08 | 99 | 1023.9 | |
| 20260504015120 | 11 | 0.0 | 0.0 | 0.00 | 0.08 | 0.08 | 99 | 1023.9 | |
| 20260504014619 | 11 | 0.0 | 0.0 | 0.00 | 0.08 | 0.08 | 99 | 1023.9 | |
| 20260504014118 | 11 | 0.0 | 0.0 | 0.00 | 0.08 | 0.08 | 99 | 1023.8 | |
| 20260504013616 | 11 | 0.0 | 0.0 | 0.00 | 0.08 | 0.08 | 99 | 1023.7 | |
| 20260504013114 | 11 | 0.0 | 0.0 | 0.00 | 0.08 | 0.08 | 99 | 1023.7 | |
| 20260504012613 | 11 | 0.0 | 0.0 | 0.00 | 0.08 | 0.08 | 99 | 1023.8 | |
| 20260504012111 | 11 | 0.0 | 0.0 | 0.00 | 0.08 | 0.08 | 99 | 1023.8 | |
| 20260504011609 | 11 | 0.0 | 0.0 | 0.00 | 0.08 | 0.08 | 99 | 1023.7 | |
| 20260504011108 | 11 | 0.0 | 0.0 | 0.00 | 0.08 | 0.08 | 99 | 1023.9 | |
| 20260504010606 | 11 | 0.0 | 0.0 | 0.00 | 0.08 | 0.08 | 99 | 1023.9 | |
| 20260504010104 | 11 | 0.0 | 0.0 | 0.00 | 0.08 | 0.08 | 99 | 1023.8 | |
| 20260504005603 | 11 | 0.0 | 0.0 | 0.00 | 0.08 | 0.08 | 99 | 1023.7 | |
| 20260504005101 | 11 | 0.0 | 0.0 | 0.00 | 0.08 | 0.08 | 99 | 1023.7 | |
| 20260504004559 | 11 | 0.0 | 0.0 | 0.00 | 0.08 | 0.08 | 99 | 1023.7 | |
| 20260504004057 | 11 | 0.0 | 0.0 | 0.00 | 0.08 | 0.08 | 99 | 1023.8 | |
| 20260504003555 | 11 | 0.0 | 0.0 | 0.00 | 0.08 | 0.08 | 99 | 1023.9 | |
| 20260504003053 | 11 | 0.0 | 0.0 | 0.00 | 0.08 | 0.08 | 99 | 1023.8 | |
| 20260504002551 | 11 | 0.0 | 0.0 | 0.00 | 0.08 | 0.08 | 99 | 1023.8 | |
| 20260504002049 | 11 | 0.0 | 0.0 | 0.00 | 0.08 | 0.08 | 99 | 1023.9 | |
| 20260504001547 | 11 | 0.0 | 0.0 | 0.00 | 0.08 | 0.08 | 99 | 1023.9 | |
| 20260504001046 | 11 | 0.0 | 0.0 | 0.00 | 0.08 | 0.08 | 99 | 1023.9 | |
| 20260504000543 | 11 | 0.0 | 0.0 | 0.00 | 0.08 | 0.08 | 99 | 1024.0 | |
| 20260504000041 | 11 | 0.0 | 0.0 | 0.00 | 0.08 | 0.08 | 99 | 1023.9 | |
| 20260503235539 | 11 | 0.0 | 0.0 | 0.00 | 0.08 | 0.08 | 99 | 1024.0 | |
| 20260503235037 | 11 | 0.0 | 0.0 | 0.00 | 0.08 | 0.08 | 99 | 1023.9 | |
| 20260503234536 | 11 | 0.0 | 0.0 | 0.00 | 0.08 | 0.08 | 99 | 1023.8 | |
| 20260503234034 | 11 | 0.0 | 0.0 | 0.00 | 0.08 | 0.08 | 99 | 1023.8 | |
| 20260503233531 | 11 | 0.0 | 0.0 | 0.00 | 0.08 | 0.08 | 99 | 1023.8 | |
| 20260503233030 | 11 | 0.0 | 0.0 | 0.00 | 0.08 | 0.08 | 99 | 1023.8 | |
| 20260503232528 | 11 | 0.0 | 0.0 | 0.00 | 0.08 | 0.08 | 99 | 1023.7 | |
| 20260503232027 | 11 | 0.0 | 0.0 | 0.00 | 0.08 | 0.08 | 99 | 1023.7 | |
| 20260503231524 | 11 | 0.0 | 0.0 | 0.00 | 0.08 | 0.08 | 99 | 1023.6 | |
| 20260503231023 | 11 | 0.0 | 0.0 | 0.00 | 0.08 | 0.08 | 99 | 1023.6 | |
| 20260503230521 | 11 | 0.0 | 0.0 | 0.00 | 0.08 | 0.08 | 99 | 1023.5 | |
| 20260503230019 | 11 | 0.0 | 0.0 | 0.00 | 0.08 | 0.08 | 98 | 1023.5 | |
| 20260503225517 | 11 | 0.0 | 0.0 | 0.00 | 0.08 | 0.08 | 98 | 1023.4 | |
| 20260503225015 | 11 | 0.0 | 0.0 | 0.00 | 0.08 | 0.08 | 98 | 1023.4 | |
| 20260503224513 | 11 | 0.0 | 0.0 | 0.00 | 0.08 | 0.08 | 97 | 1023.4 | |
| 20260503224012 | 11 | 0.0 | 0.0 | 0.00 | 0.08 | 0.08 | 97 | 1023.4 | |
| 20260503223510 | 11 | 0.0 | 0.0 | 0.00 | 0.08 | 0.08 | 97 | 1023.4 | |
| 20260503223008 | 11 | 0.0 | 0.0 | 0.00 | 0.08 | 0.08 | 97 | 1023.4 | |
| 20260503222506 | 11 | 0.0 | 0.0 | 0.00 | 0.08 | 0.08 | 96 | 1023.4 | |
| 20260503222005 | 11 | 0.0 | 0.0 | 0.00 | 0.08 | 0.08 | 96 | 1023.3 | |
| 20260503221503 | 11 | 0.0 | 0.0 | 0.00 | 0.08 | 0.08 | 96 | 1023.3 | |
| 20260503221001 | 11 | 0.0 | 0.0 | 0.00 | 0.08 | 0.08 | 95 | 1023.3 | |
| 20260503220500 | 11 | 0.0 | 0.0 | 0.00 | 0.08 | 0.08 | 95 | 1023.2 | |
| 20260503215958 | 11 | 0.0 | 0.0 | 0.00 | 0.15 | 0.08 | 95 | 1023.2 | |
| 20260503215456 | 11 | 0.0 | 0.0 | 0.00 | 0.15 | 0.08 | 95 | 1023.2 | |
| 20260503214955 | 11 | 0.0 | 0.0 | 0.00 | 0.15 | 0.08 | 95 | 1023.2 | |
| 20260503214453 | 11 | 0.0 | 0.0 | 0.00 | 0.15 | 0.08 | 95 | 1023.2 | |
| 20260503213952 | 11 | 0.0 | 0.0 | 0.00 | 0.15 | 0.08 | 95 | 1023.2 | |
| 20260503213450 | 11 | 0.0 | 0.0 | 0.00 | 0.15 | 0.08 | 95 | 1023.2 | |
| 20260503212948 | 11 | 0.0 | 0.0 | 0.00 | 0.15 | 0.08 | 94 | 1023.3 | |
| 20260503212446 | 11 | 0.0 | 0.0 | 0.00 | 0.15 | 0.08 | 95 | 1023.2 | |
| 20260503211945 | 11 | 0.0 | 0.0 | 0.00 | 0.15 | 0.08 | 95 | 1023.1 | |
| 20260503211443 | 11 | 0.0 | 0.0 | 0.00 | 0.15 | 0.08 | 95 | 1023.1 | |
| 20260503210941 | 11 | 0.0 | 0.0 | 0.00 | 0.15 | 0.08 | 94 | 1023.0 | |
| 20260503210440 | 11 | 0.0 | 0.0 | 0.00 | 0.15 | 0.08 | 95 | 1022.9 | |
| 20260503205938 | 11 | 0.0 | 0.0 | 0.00 | 0.20 | 0.08 | 94 | 1022.9 | |
| 20260503205435 | 11 | 0.0 | 0.0 | 0.00 | 0.20 | 0.08 | 94 | 1022.9 | |
| 20260503204933 | 11 | 0.0 | 0.0 | 0.00 | 0.20 | 0.08 | 94 | 1022.9 | |
| 20260503204432 | 11 | 0.0 | 0.0 | 0.00 | 0.20 | 0.08 | 93 | 1023.0 | |
| 20260503203930 | 11 | 0.0 | 0.0 | 0.00 | 0.20 | 0.08 | 92 | 1023.0 | |
| 20260503203428 | 12 | 0.0 | 0.0 | 0.00 | 0.20 | 0.08 | 91 | 1022.9 | |
| 20260503202926 | 12 | 0.0 | 0.0 | 0.00 | 0.20 | 0.08 | 90 | 1022.8 | |
| 20260503202424 | 12 | 0.0 | 0.0 | 0.00 | 0.20 | 0.08 | 90 | 1022.9 | |
| 20260503201923 | 12 | 0.0 | 0.0 | 0.00 | 0.20 | 0.08 | 91 | 1022.9 | |
| 20260503201420 | 12 | 0.0 | 0.0 | 0.00 | 0.20 | 0.08 | 92 | 1022.9 | |
| 20260503200919 | 12 | 0.0 | 0.0 | 0.00 | 0.20 | 0.08 | 92 | 1022.9 | |
| 20260503200417 | 12 | 0.0 | 0.0 | 0.00 | 0.20 | 0.08 | 94 | 1022.9 | |
| 20260503195916 | 12 | 0.0 | 0.0 | 0.00 | 0.20 | 0.08 | 95 | 1022.9 | |
| 20260503195414 | 12 | 0.0 | 0.0 | 0.00 | 0.20 | 0.08 | 95 | 1023.0 | |
| 20260503194913 | 11 | 0.0 | 0.0 | 0.00 | 0.20 | 0.08 | 95 | 1023.0 | |
| 20260503194411 | 11 | 0.0 | 0.0 | 0.00 | 0.20 | 0.08 | 96 | 1023.0 | |
| 20260503193910 | 11 | 0.0 | 0.0 | 0.00 | 0.20 | 0.08 | 95 | 1023.0 | |
| 20260503193408 | 11 | 0.0 | 0.0 | 0.00 | 0.20 | 0.08 | 95 | 1023.0 | |
| 20260503192906 | 12 | 0.0 | 0.0 | 0.00 | 0.20 | 0.08 | 94 | 1023.1 | |
| 20260503192404 | 12 | 0.0 | 0.0 | 0.00 | 0.20 | 0.08 | 93 | 1023.0 | |
| 20260503191902 | 12 | 0.0 | 0.0 | 0.00 | 0.20 | 0.08 | 92 | 1023.1 | |
| 20260503191401 | 12 | 0.0 | 0.0 | 0.00 | 0.20 | 0.08 | 92 | 1023.3 | |
| 20260503190859 | 12 | 0.0 | 0.0 | 0.00 | 0.20 | 0.08 | 92 | 1023.5 | |
| 20260503190357 | 12 | 0.0 | 0.0 | 0.00 | 0.20 | 0.08 | 92 | 1023.5 | |
| 20260503185856 | 12 | 0.0 | 0.0 | 0.00 | 0.20 | 0.08 | 91 | 1023.5 | |
| 20260503185354 | 12 | 0.0 | 0.0 | 0.00 | 0.20 | 0.08 | 90 | 1023.4 | |
| 20260503184852 | 12 | 0.0 | 0.0 | 0.00 | 0.20 | 0.08 | 90 | 1023.4 | |
| 20260503184351 | 12 | 0.0 | 0.0 | 0.00 | 0.20 | 0.08 | 91 | 1023.4 |